Wind_Speed
13 14 15 15 15 15 16 16 16 16 17 18 18 18 18 18 20 20 20 21 22 22 22 22 23 24 25 26 26 26 26 26 26 27 27 28 28 28
15 15 15 15 15 16 16 16 17 17 18 19 19 19 19 20 21 21 22 22 22 22 23 24 24 25 26 26 27 27 28 29 29 29 30 31 31 31
15 16 16 17 17 17 17 17 18 19 19 19 20 20 20 21 22 22 22 23 23 24 25 26 26 27 28 29 29 30 30 31 31 32 33 33 33 33
15 16 17 17 18 18 18 19 19 20 20 20 21 21 21 23 23 24 24 24 25 26 27 28 28 29 30 30 31 32 32 32 33 33 34 35 35 35
15 16 17 17 18 18 18 19 20 21 22 21 22 23 23 24 25 25 25 26 26 27 28 29 30 31 32 32 33 33 34 34 35 36 35 36 36 36
15 16 17 18 19 19 20 21 22 23 23 23 24 25 25 26 27 27 27 28 28 28 29 30 31 31 32 33 34 35 35 35 36 37 38 38 38 39
16 17 18 19 19 21 21 22 23 24 25 25 26 27 26 27 28 28 29 30 30 31 32 32 33 33 34 35 36 36 37 37 38 38 39 39 39 39
19 19 20 21 22 22 23 23 24 25 25 25 26 27 27 28 28 30 31 31 32 33 34 34 35 36 37 37 37 37 38 39 40 40 41 41 41 41
20 21 22 22 23 24 24 25 25 25 25 26 27 27 27 28 29 30 31 32 33 35 36 37 38 38 39 39 39 39 40 41 41 42 43 43 43 43
21 22 23 23 24 24 25 26 26 27 27 28 29 29 30 31 31 32 33 34 35 36 37 38 39 40 41 41 41 42 42 43 43 43 44 44 45 45
23 23 24 24 25 25 26 26 27 27 28 29 30 31 32 33 34 34 35 36 37 38 39 39 40 41 42 42 43 44 45 45 44 44 44 45 46 46
24 24 25 26 26 27 27 28 29 30 30 31 32 33 34 35 36 36 37 38 38 39 39 40 41 42 44 44 45 44 44 44 45 46 46 47 47 47
24 25 26 27 28 28 29 29 30 31 32 33 33 34 35 36 36 37 38 38 39 39 40 41 42 44 45 44 44 45 44 44 45 46 46 47 48 48
26 26 27 28 29 29 30 31 32 33 33 34 34 35 36 36 37 38 39 40 40 41 42 43 43 43 44 44 44 44 44 44 44 45 45 45 45 46
28 29 29 29 30 31 32 32 33 33 34 35 35 36 37 37 38 39 40 41 42 42 43 43 43 43 43 43 43 43 43 43 44 43 43 43 44 44
29 29 30 31 31 32 32 32 33 34 35 35 36 36 37 38 38 39 40 41 41 42 43 43 42 42 42 43 43 42 42 42 42 41 41 42 42 42
29 30 30 30 31 31 32 33 34 35 35 36 36 37 37 38 38 39 39 40 40 41 41 42 42 42 41 41 40 40 40 39 39 39 38 39 39 39
30 30 30 31 31 32 33 33 34 35 36 36 37 37 38 38 39 40 40 40 40 40 41 40 40 39 39 39 39 38 38 37 37 37 37 36 36 36
30 31 31 31 32 33 34 35 35 36 37 37 37 38 38 38 39 40 40 40 40 40 39 39 39 38 38 37 37 37 37 36 36 36 35 35 35 34
31 31 31 32 33 34 34 35 36 37 37 37 37 37 38 38 39 39 39 39 39 39 38 38 38 38 37 37 37 36 36 36 35 35 34 34 33 33
31 31 31 32 33 34 35 35 36 37 37 37 37 37 38 38 38 38 38 39 38 38 37 37 38 37 37 37 37 35 35 35 35 34 34 32 31 31
31 32 32 33 34 34 35 36 37 38 38 37 37 37 38 38 38 38 38 38 38 37 37 37 37 37 37 36 36 35 34 33 33 34 33 32 31 30
31 32 32 33 34 36 36 36 37 37 37 37 37 37 37 37 37 37 38 38 38 37 37 37 37 36 36 35 34 34 33 32 32 32 32 31 31 30
Wind_Direction
286 288 290 291 290 289 289 288 289 289 290 291 294 293 289 288 287 286 284 283 282 280 280 280 281 279 278 279 278 277 276 276 277 276 276 277 277 277
287 289 289 289 288 288 290 290 290 290 291 291 291 292 291 289 288 287 287 286 285 282 279 278 282 282 279 278 278 278 278 276 276 275 276 277 276 276
285 286 288 289 288 287 288 289 289 290 291 290 291 291 289 289 288 287 288 287 286 284 282 281 281 282 282 280 279 279 280 278 277 276 276 276 276 276
290 290 290 291 290 289 289 289 288 289 289 289 289 290 289 288 288 287 286 285 285 285 284 283 282 283 283 283 282 281 280 278 278 277 277 277 277 276
293 293 292 291 293 293 292 291 290 291 290 290 291 291 289 288 287 287 287 286 285 286 286 285 285 283 282 283 281 281 280 278 278 277 278 278 277 277
295 295 296 295 294 294 293 293 294 294 293 292 294 292 290 289 288 287 287 287 286 286 286 286 286 285 285 285 283 282 281 281 280 278 278 278 277 276
296 296 296 297 296 296 295 294 295 296 295 293 292 293 293 291 291 289 288 288 288 288 287 287 287 286 285 284 283 284 283 282 282 281 280 278 278 277
296 297 297 296 295 296 297 297 297 297 297 296 296 295 293 291 291 291 290 291 289 289 288 288 287 286 286 284 284 285 285 283 282 281 280 278 277 277
296 296 297 296 294 295 296 296 296 297 298 297 296 296 294 293 294 295 294 294 291 290 290 288 288 288 286 285 285 284 283 283 284 283 281 280 279 278
294 297 298 299 299 298 298 297 297 296 297 295 295 295 294 294 294 295 294 293 292 291 290 290 289 288 287 286 286 285 284 284 283 283 281 280 279 279
296 298 299 299 300 301 300 301 300 300 299 299 299 297 296 296 296 295 294 293 293 292 292 292 291 291 290 289 287 287 286 285 284 282 282 281 281 279
298 299 299 299 301 301 301 301 301 301 300 300 299 298 298 298 297 296 295 295 295 295 294 294 293 292 291 290 290 288 287 285 285 284 283 283 282 281
300 301 301 301 301 301 302 302 302 301 300 300 300 299 299 300 299 298 297 296 297 297 296 295 294 294 293 292 291 290 288 286 286 285 285 284 283 281
301 302 303 303 302 302 303 304 303 302 301 300 300 301 301 301 301 300 299 299 299 298 297 296 296 296 295 294 293 292 291 289 288 287 286 286 285 283
302 302 302 303 303 304 304 304 303 303 303 303 302 303 303 303 303 303 302 301 301 300 299 299 298 298 297 296 295 294 293 292 291 290 288 287 286 285
302 302 302 303 304 304 305 305 305 305 305 305 305 305 305 305 305 305 305 304 303 303 302 302 301 301 300 299 298 296 295 294 294 293 292 291 289 288
302 303 303 303 304 305 307 307 307 308 307 308 308 308 307 307 307 308 308 307 306 306 305 304 304 303 302 302 300 299 298 298 297 296 295 294 292 290
305 305 305 306 306 306 308 308 308 309 308 308 308 308 308 308 309 309 309 309 309 308 308 308 307 305 304 304 303 302 301 300 299 298 297 296 295 294
307 308 307 307 308 308 309 309 309 310 310 310 309 309 309 310 310 311 311 311 311 310 309 309 308 306 305 304 304 303 302 301 300 299 299 298 298 296
308 308 308 308 309 309 310 310 310 310 311 311 311 311 311 311 311 312 313 313 313 312 311 309 309 308 307 306 305 304 303 303 302 301 300 299 299 298
309 309 309 310 310 311 311 311 311 312 313 312 312 312 312 313 313 315 315 315 315 314 313 312 311 310 309 308 307 306 304 303 303 303 302 301 300 299
309 310 311 312 312 313 313 314 314 314 314 313 313 314 314 314 315 316 316 316 316 316 315 314 313 312 311 310 309 307 305 304 303 303 303 303 302 301
312 312 313 314 314 315 315 316 316 316 316 315 315 316 316 316 316 316 317 317 317 316 316 315 315 314 313 312 310 308 306 304 304 304 304 303 303 303
Height
5883 5882 5881 5880 5879 5878 5877 5876 5875 5874 5873 5871 5870 5869 5867 5866 5865 5864 5863 5862 5861 5860 5859 5858 5857 5856 5855 5854 5853 5852 5851 5851 5850 5849 5848 5848 5847 5846
5880 5879 5878 5877 5876 5875 5874 5872 5871 5870 5869 5867 5865 5864 5863 5861 5860 5859 5858 5857 5855 5854 5853 5852 5851 5850 5848 5847 5846 5845 5844 5843 5842 5841 5840 5840 5839 5838
5877 5876 5874 5873 5872 5871 5870 5868 5867 5865 5864 5863 5861 5860 5858 5857 5855 5854 5852 5851 5849 5848 5847 5846 5844 5843 5842 5840 5839 5838 5836 5835 5834 5833 5832 5831 5830 5829
5873 5872 5871 5869 5868 5866 5865 5863 5862 5861 5859 5858 5856 5854 5853 5851 5850 5848 5846 5845 5843 5842 5840 5838 5837 5835 5834 5832 5831 5829 5828 5826 5825 5824 5823 5821 5820 5819
5870 5868 5867 5865 5864 5862 5860 5859 5857 5856 5854 5853 5851 5849 5847 5845 5843 5842 5840 5838 5836 5835 5833 5831 5829 5827 5825 5824 5822 5820 5819 5817 5816 5814 5813 5811 5810 5809
5866 5865 5863 5861 5859 5858 5856 5854 5852 5851 5849 5847 5845 5843 5841 5839 5837 5835 5833 5831 5829 5827 5825 5823 5821 5819 5817 5815 5813 5811 5809 5807 5805 5803 5802 5800 5799 5797
5862 5861 5859 5857 5855 5853 5851 5849 5847 5845 5843 5841 5839 5836 5834 5832 5830 5828 5826 5824 5821 5819 5817 5814 5812 5810 5807 5805 5803 5801 5798 5796 5794 5792 5790 5788 5787 5785
5858 5856 5854 5852 5850 5848 5846 5843 5841 5839 5837 5834 5832 5829 5827 5825 5822 5820 5817 5815 5813 5811 5808 5805 5803 5800 5797 5795 5792 5790 5787 5785 5782 5780 5778 5776 5774 5773
5853 5851 5849 5847 5844 5842 5840 5838 5835 5833 5830 5828 5825 5823 5820 5818 5815 5812 5809 5807 5804 5801 5798 5795 5792 5789 5787 5784 5781 5779 5776 5773 5770 5767 5765 5763 5761 5759
5848 5846 5843 5841 5838 5836 5834 5831 5829 5826 5824 5821 5818 5815 5812 5809 5806 5804 5800 5798 5795 5791 5788 5785 5781 5778 5775 5772 5769 5766 5763 5760 5757 5755 5752 5750 5748 5746
5842 5840 5838 5835 5833 5830 5828 5825 5822 5819 5816 5813 5810 5807 5804 5800 5797 5794 5790 5787 5784 5781 5777 5774 5770 5767 5763 5760 5756 5753 5750 5747 5744 5741 5739 5736 5734 5732
5837 5834 5832 5829 5826 5823 5821 5818 5815 5812 5809 5805 5802 5799 5795 5791 5788 5784 5780 5777 5773 5770 5766 5762 5758 5754 5751 5747 5743 5740 5736 5733 5730 5728 5725 5722 5719 5717
5831 5828 5825 5822 5820 5817 5814 5811 5807 5804 5800 5797 5793 5790 5786 5782 5778 5774 5770 5766 5762 5758 5755 5750 5746 5742 5738 5734 5730 5726 5722 5719 5716 5713 5710 5707 5704 5702
5825 5822 5819 5816 5813 5810 5806 5803 5799 5796 5792 5788 5784 5780 5776 5772 5768 5764 5759 5755 5751 5747 5743 5738 5734 5729 5725 5720 5716 5712 5708 5705 5702 5699 5695 5692 5689 5686
5818 5815 5812 5809 5806 5802 5798 5794 5791 5787 5783 5779 5775 5770 5766 5762 5757 5753 5748 5744 5739 5735 5730 5726 5721 5716 5712 5707 5703 5699 5695 5691 5688 5684 5681 5678 5675 5672
5811 5808 5804 5801 5798 5794 5790 5786 5782 5778 5774 5769 5765 5761 5756 5752 5747 5742 5738 5733 5728 5723 5718 5713 5708 5703 5699 5694 5690 5685 5681 5678 5674 5671 5667 5664 5661 5658
5804 5800 5797 5793 5790 5786 5782 5778 5774 5769 5765 5760 5756 5751 5746 5742 5737 5732 5727 5721 5717 5712 5706 5701 5695 5690 5686 5682 5677 5673 5669 5665 5661 5658 5655 5652 5648 5645
5797 5793 5789 5785 5782 5778 5774 5769 5765 5760 5756 5751 5747 5742 5737 5732 5727 5721 5716 5711 5705 5700 5695 5690 5685 5679 5674 5669 5666 5662 5658 5654 5650 5646 5643 5640 5637 5633
5789 5785 5781 5777 5773 5769 5765 5761 5756 5752 5747 5742 5737 5732 5727 5722 5716 5711 5706 5700 5695 5689 5684 5679 5674 5669 5664 5660 5655 5651 5647 5643 5639 5635 5632 5628 5625 5622
5782 5778 5774 5769 5765 5761 5757 5752 5747 5742 5737 5732 5727 5722 5717 5712 5706 5701 5695 5690 5684 5679 5673 5668 5663 5658 5653 5649 5645 5641 5636 5632 5628 5625 5621 5618 5614 5611
5774 5770 5766 5761 5757 5753 5748 5743 5738 5733 5728 5723 5718 5712 5707 5702 5696 5691 5685 5680 5674 5669 5664 5658 5653 5648 5643 5638 5634 5630 5626 5621 5617 5614 5611 5607 5604 5601
5767 5762 5758 5753 5749 5744 5739 5734 5729 5724 5718 5713 5708 5703 5697 5692 5687 5681 5676 5670 5665 5660 5654 5649 5643 5638 5633 5628 5624 5620 5616 5612 5608 5603 5600 5596 5593 5590
5759 5755 5750 5745 5741 5736 5731 5725 5720 5715 5709 5704 5699 5693 5688 5683 5677 5672 5667 5661 5656 5650 5645 5639 5634 5629 5623 5619 5614 5610 5606 5602 5598 5595 5591 5587 5584 5581